Location: Harwich
(41.7160°N, 69.9939°W)
Time: 20:17:35
(UTC+01:00)

Tiros 1 - Visible Passes

Search period start: 09 December 2023 00:00
Search period end: 19 December 2023 00:00
Orbit: 625 x 659 km, 48.4° (Epoch: 08 December)

Date Brightness Start Highest point End Pass type
(mag) Time Alt. Az. Time Alt. Az. Time Alt. Az.
09 Dec 8.2 10:28:11 36° NNE 10:28:11 36° NNE 10:31:45 10° ENE visible
09 Dec 7.9 12:05:45 11° WNW 12:10:03 41° N 12:14:35 10° E visible
10 Dec 8.0 10:51:43 36° N 10:52:06 36° N 10:56:33 10° ENE visible
11 Dec 9.8 09:37:40 16° NE 09:37:40 16° NE 09:38:43 10° ENE visible
11 Dec 8.0 11:15:14 29° NW 11:17:00 40° N 11:21:32 10° E visible
12 Dec 9.1 10:01:11 24° NE 10:01:11 24° NE 10:03:30 10° ENE visible
12 Dec 7.6 11:38:45 21° NW 11:41:49 53° NNE 11:46:30 10° E visible
13 Dec 8.3 10:24:42 36° NNE 10:24:42 36° NNE 10:28:27 10° ENE visible
13 Dec 7.2 12:02:16 13° WNW 12:06:30 83° NNE 12:11:17 10° ESE visible
14 Dec 7.6 10:48:13 47° N 10:48:47 50° NNE 10:53:26 10° E visible
14 Dec 7.6 12:26:18 10° WNW 12:30:59 54° SW 12:35:38 10° SE visible
15 Dec 9.8 09:34:12 16° ENE 09:34:12 16° ENE 09:35:22 10° ENE visible
15 Dec 7.2 11:11:47 40° NW 11:13:29 76° NNE 11:18:16 10° ESE visible
16 Dec 9.0 09:57:48 29° ENE 09:57:48 29° ENE 10:00:21 10° E visible
16 Dec 7.3 11:35:23 26° WNW 11:37:59 61° SW 11:42:42 10° SE visible
17 Dec 7.8 10:21:26 53° E 10:21:26 53° E 10:25:13 10° ESE visible
17 Dec 8.3 11:59:01 15° W 12:02:19 30° SW 12:06:29 10° SSE visible
18 Dec 7.2 10:45:08 68° SSW 10:45:08 68° SSW 10:49:44 10° SE visible
18 Dec 9.2 12:23:53 10° W 12:26:26 14° SW 12:28:59 10° SSW visible
